Location: Farmers Union Landing
(35.3631°N, 88.2048°W)
Time: 15:07:59
(UTC+00:00)

LightSail 2 - Visible Passes

Search period start: 04 June 2020 00:00
Search period end: 14 June 2020 00:00
Orbit: 694 x 720 km, 24.0° (Epoch: 03 June)

Date Brightness Start Highest point End Pass type
(mag) Time Alt. Az. Time Alt. Az. Time Alt. Az.
04 Jun 6.6 09:14:43 18° SSW 09:15:10 19° S 09:18:42 10° SSE visible
05 Jun 7.4 08:18:57 11° SE 08:18:57 11° SE 08:19:16 10° SE visible
05 Jun 7.0 09:58:17 10° SW 10:00:13 12° SSW 10:02:08 10° S visible
06 Jun 7.1 09:02:11 13° S 09:02:11 13° S 09:03:24 10° SSE visible
10 Jun 7.4 03:13:44 10° SSW 03:13:48 10° SSW 03:13:48 10° SSW visible
11 Jun 6.7 02:14:29 10° SSW 02:17:25 15° SSE 02:18:08 15° SSE visible
12 Jun 6.7 02:58:41 10° SW 03:01:11 19° SSW 03:01:11 19° SSW visible
13 Jun 6.6 01:59:11 10° SW 02:02:43 19° S 02:05:13 14° SE visible
13 Jun 7.4 03:43:37 10° SW 03:44:05 12° SW 03:44:05 12° SW visible
